1532638800.55,35855,20.0,74272.3,6.57,-7.99,-6.97,0,*78
1532638801.79,35856,20.0,74270.8,6.53,-8.03,-7.23,0,*7D
1532638803.03,35857,20.0,74270.8,6.53,-8.17,-7.39,0,*72
1532638804.24,35858,20.0,74268.0,6.57,-8.29,-7.49,0,*73
1532638805.46,35859,20.0,74274.0,6.53,-8.71,-7.83,0,*7D
1532638806.69,35860,20.0,74272.0,6.53,-8.85,-8.21,0,*7B
1532638807.9,35861,20.0,74270.8,6.53,-8.85,-8.59,0,*75
1532638809.12,35862,20.0,74270.0,6.53,-8.75,-8.85,0,*78
1532638810.34,35863,20.0,74268.0,6.53,-8.85,-9.01,0,*7B
1532638811.59,35864,20.0,74268.3,6.51,-9.15,-9.27,0,*72
1532638812.86,35865,20.0,74270.5,6.51,-9.37,-9.53,0,*70
1532638814.12,35866,20.0,74272.3,6.51,-9.57,-9.83,0,*78
1532638815.35,35867,20.0,74268.0,6.51,-9.79,-10.05,0,*43
1532638816.57,35868,20.0,74274.0,6.51,-10.05,-10.23,0,*7B
1532638817.83,35869,20.0,74270.0,6.51,-10.35,-10.41,0,*7D
1532638819.08,35870,20.0,74272.0,6.51,-10.49,-10.63,0,*7E
1532638820.37,35871,20.0,74270.3,6.51,-10.63,-10.67,0,*73
1532638821.65,35872,20.0,74272.5,6.51,-10.75,-10.75,0,*74
1532638822.87,35873,20.0,74270.5,6.49,-10.79,-10.85,0,*7F
1532638824.08,35874,20.0,74266.0,6.49,-11.11,-10.97,0,*74
1532638825.3,35875,20.0,74266.5,6.49,-11.37,-11.11,0,*7E
1532638826.55,35876,20.0,74270.5,6.49,-11.77,-11.37,0,*7D
1532638827.81,35877,20.0,74266.8,6.49,-11.93,-11.63,0,*77
1532638829.06,35878,20.0,74272.5,6.49,-12.07,-11.89,0,*72
1532638830.27,35879,20.0,74272.0,6.49,-12.21,-12.25,0,*72
1532638831.52,35880,20.0,74268.5,6.49,-12.35,-12.61,0,*71
1532638832.75,35881,20.0,74270.0,6.49,-12.53,-12.97,0,*79
1532638833.95,35882,20.0,74274.5,6.49,-12.39,-13.23,0,*78
1532638835.2,35883,20.0,74268.0,6.47,-12.39,-13.29,0,*7D
1532638836.44,35884,20.0,74268.3,6.47,-12.29,-13.01,0,*71
1532638837.67,35885,20.0,74270.8,6.45,-12.15,-12.97,0,*73
1532638838.92,35886,20.0,74270.3,6.45,-12.11,-12.71,0,*7C
1532638840.18,35887,20.0,74268.0,6.45,-12.07,-12.71,0,*7A
1532638841.43,35888,20.0,74274.8,6.45,-11.93,-12.65,0,*7E
1532638842.68,35889,20.0,74268.5,6.45,-11.97,-12.53,0,*7E
1532638843.92,35890,20.0,74270.0,6.45,-12.11,-12.65,0,*7E
1532638845.15,35891,20.0,74270.8,6.45,-12.25,-12.83,0,*70
1532638846.34,35892,20.0,74270.8,6.45,-12.39,-13.15,0,*70
1532638847.59,35893,20.0,74266.5,6.43,-12.47,-13.33,0,*7A
1532638848.82,35894,20.0,74270.8,6.43,-12.29,-13.55,0,*75
1532638850.07,35895,20.0,74272.5,6.43,-12.03,-13.61,0,*7B
1532638851.34,35896,20.0,74270.8,6.43,-11.51,-13.61,0,*7C
1532638852.57,35897,20.0,74270.5,6.41,-11.29,-13.43,0,*70
1532638853.79,35898,20.0,74270.5,6.41,-10.79,-13.07,0,*7B
1532638855.03,35899,20.0,74270.5,6.43,-10.53,-12.61,0,*71
1532638856.26,35900,20.0,74270.5,6.43,-10.31,-12.43,0,*74
1532638857.47,35901,20.0,74268.3,6.41,-10.19,-12.29,0,*71
1532638858.71,35902,20.0,74270.5,6.43,-10.05,-12.15,0,*72
1532638859.92,35903,20.0,74270.5,6.41,-10.09,-12.15,0,*7D
1532638861.13,35904,20.0,74270.5,6.41,-10.19,-12.21,0,*7C
1532638862.33,35905,20.0,74270.0,6.41,-10.23,-12.21,0,*74
1532638863.53,35906,20.0,74270.5,6.41,-10.49,-12.21,0,*7B
1532638864.77,35907,20.0,74270.5,6.41,-10.63,-12.21,0,*72
1532638865.97,35908,20.0,74268.0,6.41,-10.89,-12.29,0,*71
1532638867.17,35909,20.0,74268.8,6.41,-10.89,-12.29,0,*70
1532638868.37,35910,20.0,74270.5,6.37,-11.11,-12.43,0,*75
1532638869.62,35911,20.0,74270.5,6.41,-11.29,-12.61,0,*7E
1532638870.86,35912,20.0,74272.8,6.39,-11.41,-12.93,0,*71
1532638872.08,35913,20.0,74270.3,6.41,-11.37,-12.97,0,*7A
1532638873.3,35914,20.0,74270.5,6.37,-11.37,-13.11,0,*73
1532638874.53,35915,20.0,74268.3,6.39,-11.41,-13.07,0,*7A
1532638875.75,35916,20.0,74268.3,6.37,-11.55,-13.11,0,*75
1532638877.0,35917,20.0,74270.5,6.39,-11.51,-13.15,0,*7A
1532638878.25,35918,20.0,74270.5,6.39,-11.55,-13.23,0,*74
1532638879.53,35919,20.0,74268.5,6.39,-11.63,-13.33,0,*71
1532638880.75,35920,20.0,74272.3,6.37,-11.73,-13.43,0,*73
1532638882.03,35921,20.0,74270.0,6.39,-11.63,-13.37,0,*7E
1532638883.25,35922,20.0,74268.0,6.37,-11.59,-13.51,0,*7A
1532638884.5,35923,20.0,74268.0,6.39,-11.55,-13.47,0,*7E
1532638885.74,35924,20.0,74268.0,6.39,-11.37,-13.47,0,*7D
1532638886.99,35925,20.0,74268.5,6.37,-11.29,-13.29,0,*75
1532638888.18,35926,20.0,74266.5,6.37,-10.89,-13.07,0,*71
1532638889.44,35927,20.0,74272.8,6.37,-10.75,-12.71,0,*73
1532638890.66,35928,20.0,74270.0,6.37,-10.71,-12.21,0,*7D
1532638891.91,35929,20.0,74266.0,6.37,-10.71,-11.81,0,*75
1532638893.17,35930,20.0,74266.0,6.35,-10.75,-11.41,0,*77
1532638894.39,35931,20.0,74270.8,6.35,-10.85,-11.15,0,*78
1532638895.62,35932,20.0,74268.0,6.35,-10.97,-11.15,0,*78
1532638896.88,35933,20.0,74268.8,6.35,-10.75,-11.01,0,*70
1532638898.14,35934,20.0,74274.0,6.31,-10.67,-10.97,0,*7E
1532638899.37,35935,20.0,74272.8,6.31,-10.53,-10.89,0,*77
1532638900.62,35936,20.0,74268.0,6.35,-10.27,-10.63,0,*77
1532638901.84,35937,20.0,74270.3,6.31,-9.97,-10.45,0,*45
1532638903.06,35938,20.0,74268.3,6.35,-9.89,-10.15,0,*44
1532638904.29,35939,20.0,74270.0,6.35,-9.79,-10.01,0,*4F
1532638905.52,35940,20.0,74270.5,6.35,-9.79,-10.01,0,*41
1532638906.75,35941,20.0,74268.8,6.35,-9.79,-10.01,0,*40
1532638907.99,35942,20.0,74274.0,6.31,-9.83,-10.09,0,*4A
1532638909.22,35943,20.0,74270.0,6.31,-9.93,-10.35,0,*45
1532638910.47,35944,20.0,74268.5,6.31,-10.09,-10.63,0,*7A
1532638911.69,35945,20.0,74270.0,6.31,-10.09,-10.93,0,*74
1532638912.91,35946,20.0,74268.8,6.31,-10.05,-11.19,0,*78
1532638914.15,35947,20.0,74266.8,6.31,-10.09,-11.51,0,*79
1532638915.39,35948,20.0,74270.5,6.31,-10.05,-11.73,0,*7A
1532638916.63,35949,20.0,74272.3,6.31,-9.93,-11.85,0,*45
1532638917.88,35950,20.0,74268.8,6.31,-9.79,-11.89,0,*45
1532638919.16,35951,20.0,74270.0,6.35,-9.61,-11.93,0,*42
1532638920.43,35952,20.0,74266.5,6.31,-9.53,-11.89,0,*4F
1532638921.69,35953,20.0,74268.8,6.31,-9.49,-11.77,0,*44
1532638922.96,35954,20.0,74268.5,6.31,-9.49,-11.59,0,*4F
1532638924.21,35955,20.0,74268.0,6.35,-9.49,-11.41,0,*43
1532638925.48,35956,20.0,74270.0,6.31,-9.49,-11.33,0,*41
1532638926.72,35957,20.0,74268.0,6.29,-9.45,-11.33,0,*45
1532638927.94,35958,20.0,74270.0,6.29,-9.19,-11.07,0,*44
1532638929.15,35959,20.0,74270.3,6.29,-9.01,-11.01,0,*4A
1532638930.37,35960,20.0,74270.8,6.29,-9.05,-11.07,0,*42
1532638931.61,35961,20.0,74270.0,6.29,-8.71,-11.07,0,*41
1532638932.83,35962,20.0,74266.8,6.27,-8.21,-10.93,0,*45
1532638934.05,35963,20.0,74272.5,6.29,-7.39,-10.57,0,*44
1532638935.25,35964,20.0,74270.0,6.29,-6.59,-10.15,0,*42
1532638936.47,35965,20.0,74270.0,6.29,-5.97,-9.45,0,*7F
1532638937.66,35966,20.0,74272.3,6.29,-5.43,-8.85,0,*78
1532638938.9,35967,20.0,74270.0,6.29,-5.03,-8.11,0,*70
1532638940.15,35968,20.0,74270.3,6.27,-4.41,-7.57,0,*7B
1532638941.36,35969,20.0,74268.5,6.29,-4.05,-7.27,0,*73
1532638942.6,35970,20.0,74268.3,6.29,-3.71,-6.97,0,*75
1532638943.79,35971,20.0,74268.8,6.29,-3.11,-6.51,0,*78
1532638945.02,35972,20.0,74266.5,6.29,-2.95,-6.19,0,*7A
1532638946.26,35973,20.0,74268.0,6.29,-2.75,-5.93,0,*74
1532638947.51,35974,20.0,74268.0,6.29,-2.63,-5.85,0,*73
1532638948.75,35975,20.0,74270.5,6.29,-2.51,-5.81,0,*77
1532638950.0,35976,19.94,74266.8,6.29,-2.47,-5.61,0,*7D
1532638951.21,35977,20.0,74268.5,6.29,-2.15,-5.31,0,*7E
1532638952.46,35978,20.0,74268.8,6.29,-2.07,-5.19,0,*78
1532638953.7,35979,20.0,74266.8,6.29,-1.83,-4.69,0,*70
1532638954.89,35980,20.0,74266.3,6.29,-1.59,-4.53,0,*78
1532638956.11,35981,20.0,74264.0,6.29,-1.47,-4.29,0,*7B
1532638957.35,35982,20.0,74268.8,6.29,-1.47,-4.01,0,*72
1532638958.56,35983,20.0,74266.3,6.29,-1.47,-3.87,0,*7A
1532638959.77,35984,20.0,74264.8,6.29,-1.51,-3.71,0,*73
1532638960.97,35985,20.0,74260.0,6.29,-1.51,-3.63,0,*71
1532638962.17,35986,20.0,74262.0,6.29,-1.51,-3.51,0,*73
1532638963.39,35987,20.0,74262.5,6.27,-1.51,-3.39,0,*72
1532638964.59,35988,20.0,74264.0,6.31,-1.55,-3.23,0,*75
1532638965.8,35989,20.0,74266.0,6.31,-1.59,-3.23,0,*78
1532638966.98,35990,20.0,74264.0,6.29,-1.75,-3.11,0,*76
1532638968.2,35991,20.0,74264.0,6.29,-1.83,-3.03,0,*7D
1532638969.41,35992,20.0,74264.8,6.29,-1.95,-3.11,0,*7A
1532638970.62,35993,20.0,74264.8,6.29,-1.95,-3.15,0,*7F
1532638971.85,35994,20.0,74264.5,6.31,-1.95,-3.23,0,*74
1532638973.11,35995,20.0,74268.3,6.31,-1.95,-3.43,0,*73
1532638974.35,35996,20.0,74266.3,6.31,-2.03,-3.75,0,*79
1532638975.59,35997,20.0,74264.0,6.31,-2.07,-3.87,0,*71
1532638976.84,35998,20.0,74264.5,6.31,-2.03,-4.13,0,*70
1532638978.05,35999,20.0,74264.8,6.35,-1.63,-4.17,0,*74
1532638979.31,36000,20.0,74270.5,6.31,-1.43,-4.01,0,*7F
1532638980.53,36001,20.0,74266.0,6.31,-1.17,-3.83,0,*72
1532638981.79,36002,20.0,74266.8,6.31,-0.93,-3.59,0,*4B
1532638983.0,36003,20.0,74266.5,6.31,-0.73,-3.31,0,*4A
1532638984.21,36004,20.0,74264.8,6.31,-0.73,-3.19,0,*47
1532638985.43,36005,20.0,74264.5,6.31,-0.69,-3.11,0,*45
1532638986.63,36006,20.0,74268.3,6.31,-0.61,-2.99,0,*4F
1532638987.85,36007,20.0,74264.0,6.35,-0.57,-2.95,0,*43
1532638989.07,36008,20.0,74262.8,6.31,-0.53,-2.99,0,*40
1532638990.27,36009,20.0,74266.3,6.31,-0.33,-2.83,0,*4C
1532638991.54,36010,20.0,74266.5,6.31,-0.23,-2.71,0,*48
1532638992.77,36011,20.0,74266.5,6.31,0.05,-2.47,0,*55
1532638993.99,36012,20.0,74264.8,6.35,0.29,-2.19,0,*67
1532638995.25,36013,20.0,74264.8,6.31,0.41,-2.07,0,*63
1532638996.5,36014,20.0,74264.3,6.31,0.51,-1.91,0,*69
1532638997.74,36015,20.0,74264.3,6.31,0.63,-1.71,0,*67
1532638998.96,36016,19.94,74262.5,6.31,0.67,-1.55,0,*66
1532639000.18,36017,20.0,74264.0,6.31,0.75,-1.29,0,*6F
1532639001.43,36018,20.0,74262.8,6.31,0.75,-1.09,0,*62
1532639002.67,36019,20.0,74266.5,6.31,0.75,-0.85,0,*56
1532639003.9,36020,20.0,74266.0,6.31,0.75,-0.73,0,*55
1532639005.13,36021,20.0,74264.0,6.35,0.83,-0.57,0,*5F
1532639006.35,36022,20.0,74264.8,6.35,0.71,-0.37,0,*57
1532639007.61,36023,20.0,74266.8,6.35,0.79,-0.27,0,*5F
1532639008.84,36024,20.0,74264.3,6.31,0.55,-0.19,0,*5F
1532639010.06,36025,19.94,74260.8,6.31,0.63,-0.07,0,*64
1532639011.28,36026,20.0,74268.8,6.35,0.47,-0.03,0,*61
1532639012.47,36027,20.0,74262.3,6.31,0.43,-0.07,0,*64
1532639013.66,36028,19.94,74260.3,6.37,0.47,0.09,0,*4A
1532639014.88,36029,20.0,74266.0,6.31,0.41,0.05,0,*47
1532639016.09,36030,20.0,74266.3,6.35,0.33,0.05,0,*4E
1532639017.31,36031,19.94,74260.5,6.35,0.29,0.05,0,*44
1532639018.52,36032,19.94,74262.5,6.31,0.17,-0.07,0,*61
1532639019.74,36033,20.0,74266.3,6.35,0.17,-0.07,0,*64
1532639020.93,36034,20.0,74260.8,6.31,0.01,-0.29,0,*6C
1532639022.13,36035,20.0,74264.8,6.35,0.05,-0.29,0,*6D
1532639023.34,36036,20.0,74266.0,6.31,-0.11,-0.57,0,*7B
1532639024.53,36037,20.0,74264.8,6.35,0.05,-0.65,0,*67
1532639025.74,36038,20.0,74264.5,6.35,-0.03,-0.77,0,*40
1532639026.94,36039,20.0,74264.8,6.35,-0.07,-0.81,0,*4C
1532639028.17,36040,20.0,74266.3,6.35,-0.15,-1.01,0,*48
1532639029.41,36041,20.0,74260.5,6.35,-0.19,-1.05,0,*41
1532639030.63,36042,20.0,74268.3,6.35,-0.19,-1.25,0,*40
1532639031.84,36043,20.0,74262.3,6.35,-0.19,-1.33,0,*46
1532639033.04,36044,20.0,74266.3,6.35,-0.07,-1.29,0,*75
1532639034.25,36045,20.0,74268.3,6.35,-0.03,-1.17,0,*7D
1532639035.47,36046,19.94,74260.5,6.35,0.09,-0.93,0,*64
1532639036.64,36047,20.0,74260.8,6.37,0.09,-0.81,0,*64
1532639037.86,36048,20.0,74264.0,6.39,0.13,-0.53,0,*51
1532639039.06,36049,19.94,74260.8,6.35,0.09,-0.57,0,*63
1532639040.26,36050,19.94,74258.8,6.35,-0.03,-0.53,0,*48
1532639041.46,36051,19.94,74260.5,6.35,-0.07,-0.53,0,*4D
1532639042.63,36052,20.0,74262.8,6.37,-0.07,-0.49,0,*47
1532639043.8,36053,20.0,74266.5,6.37,-0.07,-0.29,0,*40
1532639044.99,36054,19.94,74262.3,6.37,-0.19,-0.15,0,*77
1532639046.17,36055,20.0,74264.0,6.37,-0.19,-0.15,0,*76
1532639047.34,36056,20.0,74264.0,6.37,-0.29,-0.03,0,*41
1532639048.52,36057,20.0,74260.3,6.37,-0.41,-0.07,0,*4A
1532639049.71,36058,19.94,74260.5,6.37,-0.41,-0.15,0,*76
1532639050.89,36059,20.0,74266.5,6.37,-0.53,-0.15,0,*74
1532639052.07,36060,20.0,74262.3,6.37,-0.53,-0.15,0,*7E
1532639053.25,36061,20.0,74266.5,6.37,-0.49,-0.11,0,*70
1532639054.46,36062,20.0,74262.5,6.37,-0.57,-0.27,0,*79
1532639055.68,36063,19.94,74262.3,6.39,-0.61,-0.27,0,*73
1532639056.88,36064,20.0,74264.3,6.37,-0.65,-0.27,0,*7E
1532639058.06,36065,20.0,74266.3,6.37,-0.65,-0.29,0,*71
1532639059.29,36066,20.0,74264.3,6.39,-0.61,-0.27,0,*76
1532639060.46,36067,20.0,74266.5,6.37,-0.57,-0.29,0,*72
1532639061.66,36068,20.0,74260.0,6.37,-0.57,-0.27,0,*73
1532639062.84,36069,20.0,74264.3,6.37,-0.57,-0.29,0,*7C
1532639064.07,36070,20.0,74264.3,6.39,-0.53,-0.27,0,*70
1532639065.25,36071,20.0,74264.8,6.37,-0.53,-0.37,0,*7E
1532639066.43,36072,20.0,74264.0,6.37,-0.37,-0.33,0,*7B
1532639067.67,36073,20.0,74266.5,6.39,-0.11,-0.23,0,*71
1532639068.85,36074,20.0,74264.0,6.37,-0.03,-0.15,0,*4E
1532639070.06,36075,20.0,74260.8,6.39,0.13,0.01,0,*45
1532639071.25,36076,20.0,74262.8,6.37,0.21,-0.03,0,*66
1532639072.48,36077,20.0,74262.0,6.39,0.33,0.25,0,*73
1532639073.72,36078,19.94,74258.8,6.39,0.41,0.33,0,*7E
1532639074.96,36079,20.0,74260.3,6.39,0.41,0.47,0,*7C
1532639076.21,36080,20.0,74264.0,6.39,0.47,0.51,0,*7B
1532639077.45,36081,20.0,74260.0,6.39,0.47,0.51,0,*7A
1532639078.64,36082,19.94,74260.8,6.37,0.43,0.59,0,*7B
1532639079.88,36083,20.0,74262.3,6.39,0.41,0.63,0,*7F
1532639081.12,36084,20.0,74266.3,6.39,0.41,0.75,0,*7F
1532639082.33,36085,20.0,74262.5,6.37,0.37,0.67,0,*72
1532639083.51,36086,20.0,74262.0,6.37,0.43,0.71,0,*75
1532639084.75,36087,19.94,74256.3,6.39,0.51,0.75,0,*7D
1532639086.0,36088,19.94,74260.5,6.39,0.59,0.75,0,*7A
1532639087.24,36089,20.0,74260.8,6.39,0.59,0.75,0,*7B
1532639088.48,36090,19.94,74258.8,6.39,0.59,0.75,0,*73
1532639089.72,36091,20.0,74262.3,6.39,0.59,0.75,0,*72
1532639090.97,36092,20.0,74264.0,6.39,0.59,0.87,0,*7C
1532639092.18,36093,20.0,74262.8,6.39,0.51,0.97,0,*74
1532639093.4,36094,20.0,74260.0,6.39,0.51,0.97,0,*73
1532639094.63,36095,20.0,74262.0,6.39,0.47,0.95,0,*77
1532639095.87,36096,20.0,74260.0,6.39,0.37,0.95,0,*73
1532639097.1,36097,20.0,74266.8,6.39,0.25,0.95,0,*71
1532639098.31,36098,20.0,74266.0,6.37,0.17,0.95,0,*71
1532639099.52,36099,19.94,74262.5,6.39,0.09,0.95,0,*41
1532639100.68,36100,19.94,74264.0,6.41,0.05,0.97,0,*41
1532639101.91,36101,20.0,74270.3,6.41,-0.23,0.87,0,*58
1532639103.13,36102,19.94,74260.8,6.39,-0.45,0.87,0,*54
1532639104.35,36103,20.0,74260.8,6.39,-0.61,0.83,0,*57
1532639105.58,36104,20.0,74266.8,6.39,-0.73,0.71,0,*5E
1532639106.84,36105,20.0,74260.8,6.39,-0.89,0.59,0,*50
1532639108.09,36106,20.0,74264.3,6.39,-0.97,0.33,0,*50
1532639109.34,36107,20.0,74264.0,6.39,-0.89,0.41,0,*5B
1532639110.59,36108,20.0,74266.0,6.39,-0.85,0.51,0,*59
1532639111.84,36109,20.0,74266.8,6.39,-0.89,0.41,0,*55
1532639113.09,36110,20.0,74262.8,6.39,-0.89,0.47,0,*5B
1532639114.32,36111,19.94,74260.8,6.41,-0.97,0.51,0,*5D
1532639115.55,36112,20.0,74266.8,6.41,-0.93,0.51,0,*5A
1532639116.8,36113,20.0,74266.5,6.43,-0.85,0.55,0,*5A
1532639118.03,36114,19.94,74260.3,6.41,-1.05,0.63,0,*63
1532639119.23,36115,20.0,74264.0,6.41,-1.25,0.63,0,*60
1532639120.43,36116,20.0,74262.5,6.41,-1.59,0.51,0,*69
1532639121.67,36117,20.0,74264.3,6.41,-1.83,0.37,0,*6F
1532639122.9,36118,20.0,74266.3,6.41,-1.99,0.13,0,*6D
1532639124.11,36119,20.0,74262.3,6.41,-1.99,0.05,0,*5B
1532639125.31,36120,19.94,74260.0,6.41,-1.99,0.01,0,*55
1532639126.52,36121,19.94,74260.0,6.41,-2.07,0.05,0,*54
1532639127.72,36122,20.0,74264.5,6.43,-2.19,0.01,0,*5E
1532639128.91,36123,20.0,74264.5,6.41,-2.31,-0.11,0,*4B
1532639130.12,36124,19.94,74266.8,6.41,-2.43,-0.23,0,*48
1532639131.33,36125,20.0,74266.3,6.41,-2.55,-0.33,0,*4F
1532639132.55,36126,19.94,74262.0,6.41,-2.55,-0.41,0,*49
1532639133.76,36127,20.0,74266.8,6.41,-2.55,-0.45,0,*4C
1532639134.97,36128,20.0,74264.5,6.41,-2.67,-0.57,0,*41
1532639136.2,36129,20.0,74266.0,6.43,-2.71,-0.69,0,*48
1532639137.39,36130,20.0,74266.5,6.41,-2.79,-0.81,0,*4C
1532639138.62,36131,19.94,74264.5,6.41,-2.71,-0.93,0,*46
1532639139.86,36132,20.0,74264.3,6.41,-2.59,-1.05,0,*71
1532639141.1,36133,19.94,74264.0,6.41,-2.47,-1.05,0,*7F
1532639142.31,36134,20.0,74266.8,6.41,-2.23,-1.09,0,*76
1532639143.58,36135,20.0,74268.3,6.43,-1.99,-1.05,0,*7B
1532639144.82,36136,20.0,74266.5,6.41,-1.99,-0.97,0,*40
1532639146.06,36137,20.0,74266.0,6.41,-1.83,-1.05,0,*70
1532639147.32,36138,19.94,74264.3,6.43,-1.47,-0.85,0,*4C
1532639148.56,36139,20.0,74266.5,6.43,-1.43,-0.73,0,*40
1532639149.77,36140,20.0,74266.0,6.43,-1.25,-0.73,0,*4E
1532639150.99,36141,19.94,74266.5,6.43,-1.17,-0.73,0,*4E
1532639152.23,36142,20.0,74264.5,6.43,-1.05,-0.73,0,*4E
1532639153.45,36143,20.0,74266.3,6.43,-0.93,-0.61,0,*72
1532639154.66,36144,19.94,74268.8,6.43,-0.81,-0.61,0,*76
1532639155.87,36145,20.0,74266.8,6.43,-0.73,-0.57,0,*7F
1532639157.07,36146,20.0,74266.8,6.43,-0.61,-0.49,0,*70
1532639158.25,36147,20.0,74266.5,6.45,-0.45,-0.41,0,*79
1532639159.46,36148,19.94,74260.3,6.43,-0.33,-0.41,0,*71
1532639160.69,36149,20.0,74266.5,6.43,-0.11,-0.23,0,*74
1532639161.9,36150,20.0,74264.8,6.43,0.05,-0.11,0,*65
1532639163.11,36151,19.94,74264.5,6.43,0.29,0.05,0,*42
1532639164.35,36152,19.94,74262.0,6.43,0.63,0.29,0,*71
1532639165.59,36153,19.94,74266.0,6.43,0.87,0.51,0,*75
1532639166.82,36154,20.0,74266.3,6.43,0.97,0.79,0,*79
1532639168.07,36155,20.0,74268.5,6.43,1.09,0.79,0,*4E
1532639169.3,36156,19.94,74266.8,6.45,1.21,0.91,0,*47
1532639170.51,36157,20.0,74270.0,6.45,1.33,1.05,0,*79
1532639171.74,36158,19.94,74262.0,6.45,1.33,1.13,0,*71
1532639172.96,36159,20.0,74266.5,6.45,1.51,1.17,0,*70
1532639174.18,36160,20.0,74270.8,6.45,1.67,1.29,0,*72
1532639175.35,36161,19.94,74264.5,6.45,1.79,1.41,0,*72
1532639176.57,36162,20.0,74266.3,6.45,1.89,1.43,0,*7C
1532639177.79,36163,19.94,74266.5,6.45,2.13,1.51,0,*7E
1532639178.99,36164,19.94,74266.8,6.45,2.25,1.75,0,*7A
1532639180.18,36165,20.0,74268.5,6.45,2.35,1.89,0,*79
1532639181.4,36166,19.94,74264.0,6.45,2.59,2.05,0,*77
1532639182.65,36167,20.0,74264.3,6.47,2.69,2.25,0,*75
1532639183.85,36168,20.0,74268.0,6.45,2.77,2.27,0,*75
1532639185.07,36169,20.0,74264.0,6.45,2.89,2.39,0,*7A
1532639186.28,36170,20.0,74264.8,6.45,3.07,2.61,0,*78
1532639187.51,36171,20.0,74268.5,6.45,3.41,2.77,0,*7C
1532639188.71,36172,20.0,74266.3,6.45,3.45,2.95,0,*77
1532639189.96,36173,19.94,74264.8,6.47,3.49,3.07,0,*72
1532639191.15,36174,20.0,74264.5,6.45,3.55,3.19,0,*75
1532639192.34,36175,19.94,74268.3,6.45,3.55,3.19,0,*74
1532639193.57,36176,19.94,74266.8,6.47,3.67,3.29,0,*77
1532639194.78,36177,20.0,74266.8,6.45,3.81,3.41,0,*72
1532639195.95,36178,19.94,74266.0,6.45,3.93,3.59,0,*77
1532639197.16,36179,20.0,74266.5,6.45,3.93,3.67,0,*7B
1532639198.38,36180,19.94,74266.0,6.47,4.15,3.79,0,*79
1532639199.59,36181,20.0,74268.3,6.47,4.11,3.89,0,*73
1532639200.82,36182,19.94,74266.8,6.47,4.11,4.05,0,*73
1532639202.02,36183,19.94,74264.5,6.47,4.15,4.11,0,*73
1532639203.22,36184,19.94,74266.3,6.47,4.15,4.15,0,*70
1532639204.42,36185,19.94,74266.3,6.47,4.23,4.15,0,*74
1532639205.68,36186,19.94,74264.3,6.47,4.31,4.31,0,*72
1532639206.94,36187,19.94,74264.5,6.47,4.31,4.31,0,*73
1532639208.2,36188,19.94,74264.5,6.47,4.31,4.31,0,*7C
1532639209.38,36189,19.94,74264.5,6.49,4.33,4.45,0,*72
1532639210.56,36190,20.0,74270.3,6.49,4.33,4.41,0,*7E
1532639211.74,36191,19.94,74264.5,6.49,4.33,4.41,0,*7F
1532639212.93,36192,20.0,74268.0,6.49,4.33,4.45,0,*78
1532639214.16,36193,19.94,74268.0,6.47,4.31,4.41,0,*71
1532639215.36,36194,20.0,74270.3,6.47,4.41,4.41,0,*71
1532639216.54,36195,19.94,74266.5,6.49,4.45,4.57,0,*7D
1532639217.73,36196,20.0,74270.5,6.49,4.53,4.57,0,*79
1532639218.91,36197,19.94,74264.3,6.49,4.57,4.57,0,*7C
1532639220.11,36198,20.0,74268.3,6.49,4.57,4.63,0,*74
1532639221.32,36199,19.94,74266.0,6.49,4.57,4.67,0,*71
1532639222.53,36200,19.94,74264.3,6.49,4.57,4.75,0,*71
1532639223.76,36201,19.94,74268.0,6.49,4.63,4.75,0,*77
1532639224.99,36202,19.94,74266.3,6.49,4.63,4.75,0,*74
1532639226.25,36203,20.0,74268.0,6.51,4.67,4.79,0,*74
1532639227.49,36204,20.0,74266.8,6.51,4.71,4.81,0,*73
1532639228.72,36205,19.94,74266.8,6.51,4.71,4.81,0,*72
1532639229.95,36206,19.94,74268.3,6.51,4.79,4.81,0,*79
1532639231.18,36207,20.0,74270.0,6.51,4.81,4.93,0,*7C
1532639232.38,36208,20.0,74268.0,6.49,4.79,4.89,0,*76
1532639233.61,36209,20.0,74266.3,6.51,4.81,4.93,0,*72
1532639234.85,36210,19.94,74268.8,6.51,4.89,5.01,0,*78
1532639236.12,36211,19.94,74270.5,6.51,4.93,5.01,0,*72
1532639237.37,36212,20.0,74270.8,6.53,4.93,5.05,0,*77
1532639238.64,36213,20.0,74270.3,6.53,5.01,5.01,0,*78
1532639239.87,36214,19.94,74266.8,6.53,4.89,5.05,0,*7A
1532639241.08,36215,19.94,74266.3,6.49,5.01,5.11,0,*74
1532639242.28,36216,19.94,74268.5,6.51,5.07,5.15,0,*7C
1532639243.49,36217,19.94,74268.5,6.51,5.07,5.15,0,*7D
1532639244.69,36218,19.94,74268.8,6.51,5.07,5.15,0,*72
1532639245.9,36219,19.94,74264.3,6.51,5.07,5.15,0,*73
1532639247.11,36220,19.94,74266.3,6.51,5.15,5.19,0,*76
1532639248.32,36221,19.94,74268.0,6.51,5.07,5.19,0,*74
1532639249.53,36222,20.0,74268.3,6.51,5.07,5.19,0,*77
1532639250.74,36223,19.94,74264.8,6.53,5.15,5.19,0,*77
1532639251.94,36224,20.0,74268.5,6.53,5.15,5.19,0,*70
1532639253.17,36225,19.94,74266.0,6.53,5.19,5.27,0,*70
1532639254.4,36226,19.94,74268.5,6.53,5.19,5.27,0,*73
1532639255.6,36227,20.0,74268.3,6.53,5.29,5.29,0,*7F
1532639256.79,36228,19.94,74266.5,6.53,5.37,5.29,0,*7F
1532639257.99,36229,19.94,74270.0,6.53,5.37,5.37,0,*71
1532639259.19,36230,19.94,74268.0,6.53,5.37,5.41,0,*78
1532639260.39,36231,20.0,74270.8,6.53,5.37,5.41,0,*79
1532639261.61,36232,19.94,74268.0,6.57,5.41,5.51,0,*7E
1532639262.81,36233,19.94,74266.0,6.53,5.41,5.49,0,*72
1532639264.01,36234,19.94,74266.5,6.53,5.41,5.49,0,*75
1532639265.24,36235,20.0,74270.3,6.57,5.45,5.51,0,*7D
1532639266.46,36236,20.0,74268.3,6.53,5.41,5.51,0,*7E
1532639267.69,36237,19.94,74264.8,6.57,5.45,5.55,0,*7B
1532639268.91,36238,19.94,74262.3,6.57,5.45,5.55,0,*74
1532639270.14,36239,19.94,74262.0,6.53,5.37,5.51,0,*70
1532639271.36,36240,19.94,74264.8,6.53,5.37,5.51,0,*7E
1532639272.59,36241,19.94,74266.0,6.57,5.33,5.55,0,*7B
1532639273.79,36242,20.0,74268.3,6.53,5.37,5.49,0,*75
1532639274.98,36243,19.94,74264.5,6.53,5.29,5.41,0,*73
1532639276.21,36244,19.94,74268.0,6.57,5.29,5.51,0,*71
1532639277.4,36245,19.94,74266.8,6.57,5.29,5.45,0,*75
1532639278.6,36246,19.94,74266.8,6.53,5.37,5.49,0,*71
1532639279.83,36247,20.0,74268.3,6.57,5.41,5.51,0,*7C
1532639281.06,36248,19.94,74264.5,6.57,5.33,5.55,0,*72
1532639282.29,36249,19.94,74264.3,6.57,5.41,5.51,0,*72
1532639283.52,36250,19.94,74266.3,6.57,5.41,5.55,0,*7E
1532639284.75,36251,19.94,74270.0,6.57,5.41,5.51,0,*7B
1532639285.97,36252,20.0,74270.5,6.57,5.45,5.55,0,*78
1532639287.2,36253,19.94,74266.8,6.57,5.41,5.55,0,*7D
1532639288.41,36254,19.94,74266.0,6.57,5.33,5.63,0,*7A
1532639289.61,36255,19.94,74264.5,6.57,5.41,5.63,0,*7E
1532639290.79,36256,19.94,74270.5,6.59,5.45,5.59,0,*7E
1532639291.97,36257,19.94,74264.8,6.59,5.37,5.71,0,*70
1532639293.15,36258,19.94,74266.0,6.59,5.45,5.67,0,*7D
1532639294.34,36259,19.94,74268.8,6.59,5.37,5.59,0,*74
1532639295.52,36260,19.94,74272.3,6.59,5.37,5.59,0,*7E
1532639296.7,36261,19.94,74270.5,6.59,5.45,5.59,0,*7A
1532639297.88,36262,19.94,74270.0,6.59,5.37,5.59,0,*7C
1532639299.06,36263,19.94,74270.8,6.59,5.37,5.59,0,*7D
1532639300.27,36264,19.94,74264.5,6.59,5.27,5.59,0,*7B
1532639301.49,36265,19.94,74264.5,6.59,5.27,5.55,0,*76
1532639302.69,36266,19.94,74268.5,6.59,5.27,5.49,0,*78
1532639303.89,36267,19.94,74270.0,6.59,5.27,5.49,0,*79
1532639305.08,36268,19.94,74266.5,6.59,5.27,5.49,0,*76
1532639306.26,36269,19.94,74268.0,6.59,5.33,5.49,0,*72
1532639307.47,36270,19.94,74264.3,6.59,5.33,5.55,0,*77
1532639308.65,36271,19.94,74270.5,6.59,5.33,5.49,0,*7B
1532639309.86,36272,20.0,74268.0,6.59,5.37,5.55,0,*71
1532639311.03,36273,19.94,74266.8,6.59,5.45,5.49,0,*78
1532639312.21,36274,19.94,74264.0,6.59,5.37,5.49,0,*7A
1532639313.44,36275,19.94,74266.0,6.61,5.33,5.55,0,*79
1532639314.64,36276,19.94,74264.3,6.59,5.37,5.55,0,*75
1532639315.82,36277,19.94,74268.8,6.59,5.37,5.49,0,*79
1532639317.02,36278,19.94,74266.3,6.59,5.37,5.55,0,*7B
1532639318.22,36279,20.0,74268.5,6.61,5.37,5.49,0,*7C
1532639319.42,36280,19.94,74270.3,6.59,5.45,5.55,0,*79
1532639320.65,36281,19.94,74268.0,6.61,5.45,5.55,0,*73
1532639321.87,36282,19.94,74264.0,6.61,5.45,5.55,0,*70
1532639323.07,36283,19.94,74264.3,6.59,5.37,5.55,0,*7F
1532639324.27,36284,19.94,74266.8,6.59,5.45,5.55,0,*7D